[[{"header":{"parameterUnit":"m.s-1","parameterCategory":1,"la1":30.2991,"la2":30.254,"lo1":-89.0895,"lo2":-89.0444,"dy":0.0017,"dx":0.0017,"nx":28,"ny":28,"refTime":"2025-02-12T03:00:00:Z","depth":0,"parameterNumber":2,"parameterNumberName":"U-component_of_WINDS"},"data":[0,0,0,0,0,0,0,0,0,0,0,0,0,0,0,0,0,0,0,0,0,0,0,0,0,0,0,0,0,0,0,0,0,0,0,0,0,0,0,0,0,0,0,0,0,0,0,0,0,0,0,0,0,0,0,0,0,0,-0.1451,-0.1451,0,-0.1395,-0.1394,-0.1394,-0.1399,-0.14,-0.1401,-0.1402,-0.1336,-0.1334,-0.1331,0,0,0,0,0,0,0,0,0,0,0,0,0,-0.1556,-0.1554,-0.1452,-0.1451,-0.145,-0.1395,-0.1394,-0.1394,-0.1399,-0.14,-0.1401,-0.1402,-0.1337,-0.1334,-0.1331,0,0,0,0,0,0,0,0,0,0,0,0,0,-0.1506,-0.1553,-0.1452,-0.1446,-0.1445,-0.1395,-0.1394,-0.1393,-0.1399,-0.14,-0.1401,-0.1402,-0.1338,-0.1335,-0.1331,-0.128,0,0,-0.1319,-0.1317,0,0,0,0,0,0,0,0,-0.1509,-0.1502,-0.1448,-0.1447,-0.1445,-0.1406,-0.1407,-0.1355,-0.1398,-0.1416,-0.1402,-0.1403,-0.1358,-0.1352,-0.1339,-0.1277,-0.1275,-0.1319,-0.1316,-0.1315,-0.1314,0,0,0,0,0,0,0,-0.1512,-0.1504,-0.1429,-0.1447,-0.1445,-0.1444,-0.1438,-0.1397,-0.138,-0.1415,-0.1415,-0.1409,-0.1357,-0.1342,-0.1337,-0.1274,-0.1319,-0.1315,-0.1313,-0.1311,-0.1164,-0.1163,0,0,0,0,0,0,-0.1518,-0.1507,-0.1431,-0.1427,-0.1481,-0.1441,-0.1435,-0.1417,-0.138,-0.1376,-0.1407,-0.1409,-0.1348,-0.1342,-0.1335,-0.1271,-0.1315,-0.1311,-0.1309,-0.1166,-0.1164,-0.1162,0,0,0,0,0,0,-0.152,-0.1511,-0.1433,-0.1467,-0.1457,-0.1438,-0.1418,-0.1415,-0.14,-0.1375,-0.1371,-0.1396,-0.1349,-0.134,-0.1294,-0.1269,-0.1309,-0.1306,-0.1168,-0.1165,-0.1163,-0.1145,0,0,0,0,0,0,-0.1523,-0.1512,-0.1495,-0.1467,-0.1456,-0.1395,-0.1416,-0.1413,-0.1394,-0.1396,-0.1363,-0.1359,-0.135,-0.1299,-0.129,-0.1265,-0.1303,-0.117,-0.1167,-0.1164,-0.1148,-0.1142,-0.1138,0,0,0,0,0,-0.1527,-0.1491,-0.1494,-0.1484,-0.1434,-0.1394,-0.1387,-0.1379,-0.1393,-0.1373,-0.1357,-0.136,-0.1274,-0.1295,-0.1284,-0.1257,-0.1171,-0.1168,-0.1164,-0.115,-0.1143,-0.1138,0,0,0,0,0,0,-0.1514,-0.1487,-0.149,-0.1445,-0.1422,-0.1395,-0.1371,-0.1373,-0.1344,-0.1346,-0.1335,-0.1327,-0.128,-0.1264,-0.1287,-0.1205,-0.1224,-0.1218,-0.1217,-0.121,-0.1206,-0.1209,-0.13,0,0,0,0,0,-0.1506,-0.1479,-0.1456,-0.1417,-0.1406,-0.139,-0.1373,-0.1369,-0.1343,-0.1333,-0.1313,-0.1286,-0.1253,-0.1231,-0.1199,-0.1146,-0.1137,-0.1122,-0.1117,-0.1113,-0.1107,-0.1075,-0.1067,-0.115,-0.115,-0.115,0,0,-0.1489,-0.1471,-0.1454,-0.1414,-0.1396,-0.1365,-0.1382,-0.1349,-0.1324,-0.1327,-0.1282,-0.1266,-0.1235,-0.1184,-0.1161,-0.117,-0.1082,-0.1108,-0.1106,-0.1102,-0.107,-0.1062,-0.1055,-0.1148,-0.1148,-0.1149,0,0,-0.1442,-0.1427,-0.1392,-0.1374,-0.1347,-0.1336,-0.1328,-0.13,-0.1291,-0.1246,-0.1246,-0.1216,-0.1159,-0.1137,-0.1118,-0.106,-0.106,-0.1049,-0.1023,-0.0991,-0.0984,-0.0978,-0.0955,-0.0947,-0.1044,-0.1044,-0.1044,0,-0.1423,-0.1379,-0.1374,-0.134,-0.1321,-0.1324,-0.1287,-0.1268,-0.1231,-0.1217,-0.1228,-0.1156,-0.1135,-0.1078,-0.1064,-0.1049,-0.1036,-0.1052,-0.0986,-0.098,-0.0975,-0.0952,-0.0944,-0.1043,-0.1043,-0.1043,-0.1043,0,-0.1356,-0.1325,-0.13,-0.1265,-0.1244,-0.1208,-0.1195,-0.1173,-0.1171,-0.1158,-0.111,-0.1086,-0.1048,-0.1034,-0.1031,-0.0975,-0.0981,-0.099,-0.1008,-0.0965,-0.0944,-0.0935,-0.1041,-0.1042,-0.1042,-0.1042,0,0,-0.1299,-0.1262,-0.1253,-0.1236,-0.1205,-0.118,-0.1143,-0.1108,-0.1088,-0.1062,-0.1028,-0.098,-0.0987,-0.0966,-0.0959,-0.0932,-0.0884,-0.0943,-0.0942,-0.0931,-0.0818,-0.081,-0.08,-0.0885,-0.0883,-0.0882,-0.0819,0,-0.1247,-0.1185,-0.1178,-0.1121,-0.109,-0.1092,-0.1059,-0.1035,-0.1022,-0.0992,-0.0976,-0.0941,-0.0955,-0.0941,-0.0914,-0.0896,-0.0861,-0.09,-0.085,-0.0849,-0.0856,-0.079,-0.0782,-0.0724,-0.0811,-0.081,-0.0809,0,-0.1178,-0.1151,-0.1092,-0.1063,-0.105,-0.1021,-0.0987,-0.0959,-0.0931,-0.0923,-0.0898,-0.0895,-0.0854,-0.0875,-0.0816,-0.0843,-0.0822,-0.081,-0.0807,-0.08,-0.0825,-0.0779,-0.0706,-0.0696,-0.0796,-0.0797,-0.0798,0,-0.1139,-0.1088,-0.1045,-0.1031,-0.0998,-0.0977,-0.0962,-0.0935,-0.0913,-0.0883,-0.0868,-0.0832,-0.0812,-0.0783,-0.0769,-0.0786,-0.0709,-0.073,-0.0698,-0.0698,-0.068,-0.0681,-0.0601,-0.0671,-0.0671,-0.0671,-0.0671,0,-0.1081,-0.1043,-0.1027,-0.1001,-0.0958,-0.0949,-0.0906,-0.0891,-0.0867,-0.0835,-0.0834,-0.0803,-0.0788,-0.0754,-0.0742,-0.0693,-0.0684,-0.0674,-0.0671,-0.0673,-0.0674,-0.0658,-0.066,-0.0669,-0.0669,-0.067,-0.067,0,-0.103,-0.1018,-0.0971,-0.0943,-0.0935,-0.0904,-0.0879,-0.0852,-0.0839,-0.0798,-0.0788,-0.0766,-0.0726,-0.071,-0.066,-0.0652,-0.0595,-0.0596,-0.0605,-0.0604,-0.0571,-0.0574,-0.0476,-0.0461,-0.0543,-0.0542,-0.0542,0,-0.0992,-0.0964,-0.0933,-0.0913,-0.0897,-0.0864,-0.0842,-0.0832,-0.0809,-0.0773,-0.0749,-0.0709,-0.0677,-0.0612,-0.059,-0.0551,-0.055,-0.0518,-0.0544,-0.0546,-0.0546,-0.0547,-0.0542,-0.0512,-0.0512,-0.0511,-0.051,0,-0.0926,-0.0921,-0.0891,-0.0858,-0.0833,-0.0806,-0.0779,-0.0762,-0.0747,-0.072,-0.068,-0.0655,-0.0605,-0.0564,-0.0524,-0.0504,-0.0503,-0.0503,-0.0493,-0.0493,-0.0499,-0.0493,-0.059,-0.0505,-0.0505,-0.0506,-0.0506,-0.0506,-0.0879,-0.0853,-0.0827,-0.0792,-0.0771,-0.0746,-0.0719,-0.0702,-0.067,-0.0629,-0.0624,-0.058,-0.0549,-0.0496,-0.0475,-0.0438,-0.0445,-0.0432,-0.0428,-0.0424,-0.0421,-0.0507,-0.0431,-0.0431,-0.0431,-0.0431,-0.0431,0,-0.081,-0.0794,-0.0762,-0.0726,-0.0698,-0.0702,-0.0673,-0.0648,-0.061,-0.0583,-0.0551,-0.0503,-0.0463,-0.0438,-0.0397,-0.0372,-0.037,-0.0362,-0.0362,-0.0357,-0.0417,-0.0429,-0.0363,-0.0363,-0.0364,-0.0364,-0.0364,-0.0364,-0.0772,-0.0727,-0.0718,-0.0662,-0.0644,-0.0603,-0.0585,-0.0561,-0.0539,-0.0486,-0.0454,-0.0438,-0.041,-0.0367,-0.0329,-0.0323,-0.0306,-0.0296,-0.029,-0.0346,-0.0353,-0.036,-0.037,-0.0294,-0.0293,-0.0232,-0.0231,-0.0231]},{"header":{"parameterUnit":"m.s-1","parameterCategory":1,"la1":30.2991,"la2":30.254,"lo1":-89.0895,"lo2":-89.0444,"dy":0.0017,"dx":0.0017,"nx":28,"ny":28,"refTime":"2025-02-12T03:00:00:Z","depth":0,"parameterNumber":3,"parameterNumberName":"V-component_of_WINDS"},"data":[0,0,0,0,0,0,0,0,0,0,0,0,0,0,0,0,0,0,0,0,0,0,0,0,0,0,0,0,0,0,0,0,0,0,0,0,0,0,0,0,0,0,0,0,0,0,0,0,0,0,0,0,0,0,0,0,0,0,4.2397,4.2398,0,4.2514,4.2516,4.2517,4.2536,4.2535,4.2534,4.2533,4.265,4.2654,4.2658,0,0,0,0,0,0,0,0,0,0,0,0,0,4.2186,4.219,4.2397,4.2398,4.24,4.2514,4.2516,4.2517,4.2536,4.2535,4.2534,4.2532,4.2649,4.2654,4.2659,0,0,0,0,0,0,0,0,0,0,0,0,0,4.2288,4.2191,4.2396,4.2423,4.2426,4.2514,4.2516,4.2518,4.2536,4.2535,4.2533,4.2532,4.2647,4.2653,4.2659,4.2728,0,0,4.2678,4.2681,0,0,0,0,0,0,0,0,4.2282,4.2295,4.2417,4.2421,4.2425,4.2509,4.2484,4.2588,4.2537,4.2495,4.2533,4.2531,4.2604,4.2614,4.2639,4.2733,4.2738,4.2679,4.2682,4.2685,4.2687,0,0,0,0,0,0,0,4.2275,4.229,4.2443,4.2419,4.2424,4.2428,4.2441,4.2504,4.2556,4.2498,4.25,4.2514,4.2606,4.2633,4.2642,4.274,4.2679,4.2684,4.2688,4.269,4.2897,4.2899,0,0,0,0,0,0,4.2263,4.2284,4.2439,4.2447,4.2349,4.2433,4.2447,4.2484,4.2556,4.2565,4.2515,4.2514,4.2624,4.2635,4.2646,4.2733,4.2685,4.2691,4.2694,4.2895,4.2898,4.29,0,0,0,0,0,0,4.2259,4.2277,4.2435,4.2366,4.2386,4.2438,4.2479,4.2487,4.2514,4.2569,4.2578,4.2533,4.2623,4.2638,4.2708,4.2737,4.2693,4.2699,4.2893,4.2896,4.2899,4.2904,0,0,0,0,0,0,4.2253,4.2275,4.2302,4.2367,4.239,4.2495,4.2481,4.249,4.2525,4.2525,4.2588,4.2597,4.2623,4.2699,4.2714,4.2744,4.2704,4.2891,4.2894,4.2898,4.2902,4.2907,4.2911,0,0,0,0,0,4.2245,4.2298,4.2304,4.2322,4.2425,4.2497,4.251,4.2539,4.2527,4.2554,4.259,4.2595,4.2731,4.2706,4.2723,4.2756,4.2889,4.2893,4.2897,4.29,4.2906,4.2911,0,0,0,0,0,0,4.2235,4.2307,4.2314,4.239,4.2437,4.25,4.2535,4.2545,4.2596,4.2594,4.2627,4.2641,4.271,4.2739,4.271,4.2826,4.2809,4.2817,4.2805,4.2811,4.2816,4.2808,4.2709,0,0,0,0,0,4.2242,4.2294,4.2354,4.2415,4.2439,4.2483,4.2515,4.2534,4.2584,4.2603,4.2644,4.2691,4.2745,4.2779,4.2831,4.2906,4.292,4.2937,4.2941,4.2945,4.2952,4.2995,4.3003,4.2913,4.2913,4.2913,0,0,4.2256,4.2302,4.2333,4.2415,4.2453,4.2507,4.25,4.2556,4.2596,4.2612,4.2681,4.2712,4.2767,4.284,4.2874,4.2867,4.298,4.295,4.2953,4.2958,4.3,4.3008,4.3016,4.2916,4.2915,4.2915,0,0,4.2309,4.2349,4.2405,4.2445,4.2504,4.2533,4.2546,4.2608,4.263,4.27,4.2713,4.276,4.2852,4.2891,4.2923,4.2992,4.2999,4.3008,4.3033,4.3074,4.3082,4.3088,4.3114,4.3123,4.3014,4.3014,4.3014,0,4.2319,4.2402,4.2432,4.249,4.2525,4.2543,4.26,4.2636,4.2708,4.2733,4.2723,4.2839,4.2877,4.2961,4.2978,4.3002,4.3019,4.3001,4.3078,4.3085,4.3092,4.3117,4.3126,4.3015,4.3015,4.3014,4.3014,0,4.2412,4.2469,4.2506,4.2578,4.2618,4.2674,4.2713,4.2749,4.2764,4.2794,4.2866,4.2912,4.2975,4.2995,4.301,4.3081,4.3075,4.3072,4.3055,4.31,4.3125,4.3135,4.3016,4.3016,4.3015,4.3015,0,0,4.2463,4.2552,4.2565,4.2599,4.2665,4.271,4.2766,4.2829,4.286,4.2909,4.2958,4.3035,4.3033,4.3069,4.3088,4.3124,4.3178,4.3117,4.3119,4.3128,4.3261,4.3265,4.3275,4.3183,4.3185,4.3186,4.3257,0,4.2526,4.263,4.266,4.2747,4.2801,4.2818,4.2868,4.2914,4.2943,4.2992,4.3023,4.3078,4.307,4.3092,4.3129,4.3164,4.3205,4.3159,4.3229,4.3232,4.3217,4.3288,4.3292,4.3356,4.3266,4.3268,4.3269,0,4.2614,4.2667,4.276,4.2822,4.2845,4.2889,4.2949,4.2996,4.3048,4.3067,4.3108,4.3124,4.3184,4.3163,4.3246,4.3214,4.3244,4.3266,4.3269,4.3278,4.3254,4.33,4.3377,4.3388,4.3284,4.3283,4.3282,0,4.2645,4.2738,4.2807,4.2835,4.2907,4.2938,4.297,4.3021,4.3057,4.3109,4.3132,4.319,4.3222,4.3266,4.3297,4.3278,4.3378,4.3359,4.3396,4.3395,4.3418,4.3416,4.3502,4.3434,4.3434,4.3434,4.3433,0,4.2713,4.277,4.2822,4.2864,4.2929,4.2961,4.3023,4.3055,4.3101,4.3149,4.3166,4.3211,4.3249,4.3299,4.3323,4.339,4.3403,4.342,4.3426,4.342,4.3418,4.3442,4.3439,4.3436,4.3436,4.3435,4.3435,0,4.2759,4.2796,4.2872,4.2935,4.2952,4.2996,4.305,4.3091,4.3121,4.3182,4.3198,4.3245,4.3305,4.334,4.3414,4.3431,4.3505,4.3508,4.3488,4.3491,4.3526,4.3523,4.3632,4.3649,4.3567,4.3568,4.3569,0,4.2801,4.2845,4.2913,4.2948,4.298,4.3035,4.3072,4.3105,4.3143,4.3207,4.324,4.3301,4.3352,4.3447,4.3487,4.3545,4.3551,4.3585,4.356,4.3552,4.3554,4.3551,4.3557,4.359,4.359,4.3591,4.3591,0,4.2872,4.2889,4.2942,4.3003,4.3047,4.3095,4.3144,4.317,4.3212,4.3253,4.3316,4.3355,4.3432,4.3493,4.3554,4.3586,4.3596,4.3599,4.3611,4.3606,4.3593,4.3602,4.3502,4.3597,4.3596,4.3596,4.3595,4.3595,4.2919,4.296,4.3015,4.3074,4.3114,4.3159,4.3202,4.3237,4.329,4.3356,4.3372,4.3438,4.3489,4.3573,4.3606,4.3657,4.3652,4.3668,4.3673,4.3677,4.3679,4.3583,4.3668,4.3668,4.3668,4.3668,4.3668,0,4.2993,4.3029,4.3084,4.3152,4.3198,4.3204,4.3257,4.3296,4.3354,4.3402,4.3452,4.3523,4.3582,4.3627,4.3688,4.3721,4.3727,4.3735,4.3734,4.3742,4.368,4.3665,4.373,4.373,4.373,4.373,4.373,4.373,4.3038,4.3108,4.3131,4.3221,4.3256,4.3321,4.3352,4.3393,4.3432,4.3512,4.3561,4.359,4.3637,4.3701,4.3756,4.3768,4.379,4.3798,4.3811,4.3753,4.3746,4.374,4.3726,4.3802,4.3802,4.3869,4.387,4.387]}]]